Back to catalog

CAKRA-1

AliveScienceSSO
NORAD 60510·PAYLOAD·🇮🇩 Indonesia
This satellite name has not been confirmed by official sources yet.

Launched Aug 16, 2024 from Vandenberg Space Force Base

Loading…

Next Passes (next 24 hours)

TLE

FreshSource: Space-Track

Epoch: Sep 14, 2026, 04:35 UTC

1 60510U 24149AU  26257.19155545  .00011946  00000-0  27735-3 0  9997
2 60510  97.3684 341.7471 0002751 350.1839   9.9355 15.42518674116026

Track CAKRA-1 in real time with AllMySat

Download on the App Store